When you browse on this site, cookies collect data to enhance your experience and personalize the content and advertising you see.
Visit our Privacy Policy to learn more. By continuing to use the site, you agree to this use of cookies and data.
  • In Hungary
  • List of Countries
  • For 7 days
  • Water Temperature
  • Weather Map
  • News
  • Weather Widgets
  • user-avatar
    Login

    Hourly Weather Malovodyane

    Today, 21 November, Thursday

    Time Temperature Precipitation Wind Pressure Humidity
    00:00 +1°C° 0 mm 6 mps 757 mmHg 64%
    01:00 +1°C° 0 mm 6 mps 757 mmHg 66%
    02:00 +1°C° 0 mm 6 mps 757 mmHg 68%
    03:00 -1°C° 0 mm 7 mps 757 mmHg 68%
    04:00 -1°C° 0 mm 7 mps 757 mmHg 67%
    05:00 -2°C° 0 mm 7 mps 757 mmHg 67%
    06:00 -3°C° 0 mm 7 mps 758 mmHg 67%
    07:00 -3°C° 0 mm 7 mps 758 mmHg 67%
    08:00 -4°C° 0 mm 7 mps 758 mmHg 67%
    09:00 -4°C° 0 mm 7 mps 759 mmHg 62%
    10:00 -3°C° 0 mm 7 mps 759 mmHg 56%
    11:00 -3°C° 0 mm 7 mps 759 mmHg 50%
    12:00 -3°C° 0 mm 7 mps 759 mmHg 48%
    13:00 -3°C° 0 mm 7 mps 759 mmHg 45%
    14:00 -2°C° 0 mm 7 mps 759 mmHg 42%
    15:00 -3°C° 0 mm 7 mps 759 mmHg 43%
    16:00 -4°C° 0 mm 7 mps 759 mmHg 44%
    17:00 -4°C° 0 mm 6 mps 759 mmHg 46%
    18:00 -6°C° 0 mm 7 mps 759 mmHg 45%
    19:00 -7°C° 0 mm 7 mps 759 mmHg 44%
    20:00 -7°C° 0 mm 7 mps 759 mmHg 43%
    21:00 -8°C° 0 mm 7 mps 759 mmHg 41%
    22:00 -9°C° 0 mm 6 mps 759 mmHg 39%
    23:00 -9°C° 0 mm 6 mps 759 mmHg 37%

    Tomorrow, 22 November, Friday

    Time Temperature Precipitation Wind Pressure Humidity
    00:00 -9°C° 0 mm 6 mps 760 mmHg 36%
    01:00 -10°C° 0 mm 6 mps 760 mmHg 35%
    02:00 -11°C° 0 mm 7 mps 760 mmHg 34%
    03:00 -11°C° 0 mm 7 mps 759 mmHg 34%
    04:00 -12°C° 0 mm 7 mps 759 mmHg 35%
    05:00 -12°C° 0 mm 7 mps 759 mmHg 35%
    06:00 -12°C° 0 mm 7 mps 759 mmHg 34%
    07:00 -12°C° 0 mm 7 mps 759 mmHg 34%
    08:00 -12°C° 0 mm 7 mps 759 mmHg 34%
    09:00 -11°C° 0 mm 7 mps 759 mmHg 32%
    10:00 -9°C° 0 mm 7 mps 759 mmHg 30%
    11:00 -7°C° 0 mm 7 mps 759 mmHg 28%
    12:00 -7°C° 0 mm 7 mps 758 mmHg 29%
    13:00 -6°C° 0 mm 7 mps 758 mmHg 31%
    14:00 -4°C° 0 mm 7 mps 758 mmHg 32%
    15:00 -5°C° 0 mm 6 mps 758 mmHg 34%
    16:00 -6°C° 0 mm 6 mps 758 mmHg 36%
    17:00 -6°C° 0 mm 5 mps 757 mmHg 38%
    18:00 -7°C° 0 mm 5 mps 758 mmHg 38%
    19:00 -7°C° 0 mm 5 mps 758 mmHg 38%
    20:00 -8°C° 0 mm 6 mps 758 mmHg 38%
    21:00 -7°C° 0 mm 5 mps 758 mmHg 39%
    22:00 -8°C° 0 mm 5 mps 758 mmHg 41%
    23:00 -8°C° 0 mm 5 mps 758 mmHg 43%

    Day after tomorrow, 23 November, Saturday

    Time Temperature Precipitation Wind Pressure Humidity
    00:00 -8°C° 0 mm 5 mps 758 mmHg 44%
    01:00 -8°C° 0 mm 5 mps 758 mmHg 45%
    02:00 -10°C° 0 mm 5 mps 758 mmHg 47%
    03:00 -10°C° 0 mm 5 mps 757 mmHg 47%
    04:00 -10°C° 0 mm 5 mps 757 mmHg 48%
    05:00 -10°C° 0 mm 5 mps 757 mmHg 48%
    06:00 -10°C° 0 mm 5 mps 757 mmHg 47%
    07:00 -10°C° 0 mm 5 mps 757 mmHg 46%
    08:00 -10°C° 0 mm 5 mps 757 mmHg 45%
    09:00 -9°C° 0 mm 6 mps 757 mmHg 42%
    10:00 -6°C° 0 mm 6 mps 757 mmHg 39%
    11:00 -5°C° 0 mm 6 mps 757 mmHg 35%
    12:00 -4°C° 0 mm 6 mps 756 mmHg 34%
    13:00 -3°C° 0 mm 6 mps 756 mmHg 32%
    14:00 -3°C° 0 mm 6 mps 756 mmHg 31%
    15:00 -4°C° 0 mm 5 mps 756 mmHg 33%
    16:00 -4°C° 0 mm 4 mps 755 mmHg 35%
    17:00 -5°C° 0 mm 4 mps 755 mmHg 38%
    18:00 -5°C° 0 mm 4 mps 755 mmHg 38%
    19:00 -5°C° 0 mm 4 mps 755 mmHg 38%
    20:00 -7°C° 0 mm 5 mps 755 mmHg 38%
    21:00 -7°C° 0 mm 5 mps 755 mmHg 39%
    22:00 -7°C° 0 mm 4 mps 755 mmHg 39%
    23:00 -7°C° 0 mm 4 mps 755 mmHg 39%

    24 November, Sunday

    Time Temperature Precipitation Wind Pressure Humidity
    00:00 -8°C° 0 mm 5 mps 755 mmHg 41%
    01:00 -8°C° 0 mm 5 mps 755 mmHg 42%
    02:00 -8°C° 0 mm 5 mps 755 mmHg 43%
    03:00 -8°C° 0 mm 5 mps 755 mmHg 45%
    04:00 -10°C° 0 mm 5 mps 755 mmHg 47%
    05:00 -9°C° 0 mm 4 mps 754 mmHg 49%
    06:00 -9°C° 0 mm 4 mps 754 mmHg 51%
    07:00 -10°C° 0 mm 5 mps 754 mmHg 52%
    08:00 -8°C° 0 mm 5 mps 754 mmHg 53%
    09:00 -7°C° 0 mm 5 mps 754 mmHg 53%
    10:00 -6°C° 0 mm 5 mps 754 mmHg 53%
    11:00 -4°C° 0 mm 5 mps 754 mmHg 53%
    12:00 -4°C° 0 mm 5 mps 754 mmHg 53%
    13:00 -2°C° 0 mm 5 mps 754 mmHg 53%
    14:00 -2°C° 0 mm 5 mps 754 mmHg 54%
    15:00 -3°C° 0 mm 4 mps 753 mmHg 58%
    16:00 -2°C° 0 mm 3 mps 753 mmHg 62%
    17:00 -4°C° 0 mm 3 mps 753 mmHg 66%
    18:00 -4°C° 0 mm 3 mps 753 mmHg 67%
    19:00 -4°C° 0 mm 3 mps 753 mmHg 67%
    20:00 -4°C° 0 mm 4 mps 753 mmHg 67%
    21:00 -3°C° 0 mm 4 mps 753 mmHg 68%
    22:00 -3°C° 0 mm 4 mps 753 mmHg 68%
    23:00 -3°C° 0 mm 4 mps 753 mmHg 69%

    25 November, Monday

    Time Temperature Precipitation Wind Pressure Humidity
    00:00 -3°C° 0 mm 4 mps 753 mmHg 71%
    01:00 -3°C° 0 mm 4 mps 753 mmHg 72%
    02:00 -3°C° 0 mm 4 mps 752 mmHg 73%
    03:00 -3°C° 0 mm 4 mps 752 mmHg 75%
    04:00 -3°C° 0 mm 4 mps 752 mmHg 76%
    05:00 -4°C° 0 mm 5 mps 752 mmHg 78%
    06:00 -5°C° 0 mm 5 mps 752 mmHg 78%
    07:00 -5°C° 0 mm 5 mps 752 mmHg 79%
    08:00 -5°C° 0 mm 5 mps 752 mmHg 79%
    09:00 -3°C° 0 mm 4 mps 752 mmHg 77%
    10:00 -2°C° 0 mm 4 mps 752 mmHg 75%
    11:00 -2°C° 0 mm 4 mps 752 mmHg 73%
    12:00 -2°C° 0 mm 4 mps 752 mmHg 73%
    13:00 -1°C° 0 mm 4 mps 751 mmHg 74%
    14:00 -1°C° 0 mm 4 mps 751 mmHg 74%
    15:00 -1°C° 0 mm 4 mps 751 mmHg 76%
    16:00 -2°C° 0 mm 4 mps 751 mmHg 78%
    17:00 -1°C° 0 mm 3 mps 751 mmHg 81%
    18:00 -1°C° 0 mm 3 mps 751 mmHg 80%
    19:00 -1°C° 0 mm 3 mps 751 mmHg 80%
    20:00 0°C° 0 mm 3 mps 751 mmHg 80%
    21:00 0°C° 0 mm 3 mps 751 mmHg 80%
    22:00 0°C° 0 mm 3 mps 751 mmHg 80%
    23:00 0°C° 0 mm 3 mps 750 mmHg 80%

    26 November, Tuesday

    Time Temperature Precipitation Wind Pressure Humidity
    00:00 -1°C° 0 mm 3 mps 750 mmHg 81%
    01:00 -1°C° 0 mm 3 mps 750 mmHg 82%
    02:00 -2°C° 0 mm 4 mps 750 mmHg 83%
    03:00 -2°C° 0 mm 4 mps 750 mmHg 82%
    04:00 -2°C° 0 mm 4 mps 749 mmHg 82%
    05:00 -2°C° 0 mm 4 mps 749 mmHg 81%
    06:00 -2°C° 0 mm 4 mps 749 mmHg 81%
    07:00 -1°C° 0 mm 3 mps 749 mmHg 80%
    08:00 -1°C° 0 mm 3 mps 749 mmHg 79%
    09:00 0°C° 0 mm 3 mps 749 mmHg 76%
    10:00 +1°C° 0 mm 3 mps 749 mmHg 73%
    11:00 +1°C° 0 mm 3 mps 749 mmHg 70%
    12:00 +1°C° 0 mm 3 mps 749 mmHg 71%
    13:00 +2°C° 0 mm 3 mps 748 mmHg 71%
    14:00 +2°C° 0 mm 3 mps 748 mmHg 72%
    15:00 +1°C° 0 mm 3 mps 748 mmHg 75%
    16:00 +1°C° 0 mm 3 mps 748 mmHg 78%
    17:00 +1°C° 0 mm 3 mps 748 mmHg 81%
    18:00 0°C° 0 mm 3 mps 748 mmHg 82%
    19:00 0°C° 0 mm 3 mps 748 mmHg 83%
    20:00 +1°C° 0 mm 2 mps 748 mmHg 84%
    21:00 +1°C° 0 mm 2 mps 748 mmHg 84%
    22:00 +1°C° 0 mm 2 mps 748 mmHg 85%
    23:00 +1°C° 0 mm 2 mps 748 mmHg 86%
    Show more